TimeEST,TemperatureF,Dew PointF,Humidity,Sea Level PressureIn,VisibilityMPH,Wind Direction,Wind SpeedMPH,Gust SpeedMPH,PrecipitationIn,Events,Conditions,WindDirDegrees,DateUTC
12:53 AM,64.9,55.0,70,29.94,10.0,SSW,8.1,-,N/A,,Mostly Cloudy,200,2013-12-05 05:53:00
1:53 AM,63.0,55.0,75,29.94,10.0,SW,4.6,-,N/A,,Overcast,230,2013-12-05 06:53:00
2:53 AM,64.9,57.0,75,29.93,10.0,WSW,9.2,-,N/A,,Overcast,240,2013-12-05 07:53:00
3:53 AM,64.0,57.0,78,29.94,10.0,West,10.4,-,N/A,,Mostly Cloudy,270,2013-12-05 08:53:00
4:53 AM,64.0,57.9,80,29.95,10.0,West,9.2,-,N/A,,Mostly Cloudy,280,2013-12-05 09:53:00
5:42 AM,64.4,59.0,83,29.99,10.0,West,8.1,-,N/A,,Overcast,270,2013-12-05 10:42:00
5:53 AM,64.9,57.9,78,29.97,10.0,West,6.9,-,N/A,,Overcast,280,2013-12-05 10:53:00
6:14 AM,64.4,59.0,83,30.00,10.0,West,5.8,-,N/A,,Overcast,260,2013-12-05 11:14:00
6:53 AM,63.0,57.9,84,29.98,10.0,Calm,Calm,-,N/A,,Overcast,0,2013-12-05 11:53:00
7:53 AM,63.0,57.9,84,29.99,10.0,Calm,Calm,-,N/A,,Overcast,0,2013-12-05 12:53:00
8:53 AM,64.9,57.9,78,29.99,10.0,Calm,Calm,-,N/A,,Mostly Cloudy,0,2013-12-05 13:53:00
9:53 AM,69.1,60.1,73,30.00,10.0,SW,6.9,-,N/A,,Overcast,220,2013-12-05 14:53:00
10:53 AM,75.0,61.0,62,29.99,10.0,SSW,10.4,-,N/A,,Overcast,210,2013-12-05 15:53:00
11:53 AM,73.0,61.0,66,29.98,10.0,SW,18.4,25.3,N/A,,Overcast,220,2013-12-05 16:53:00
1:53 PM,73.9,63.0,68,29.92,10.0,SSW,15.0,25.3,0.02,,Overcast,200,2013-12-05 18:53:00
2:53 PM,73.9,64.0,71,29.91,10.0,SW,12.7,20.7,N/A,,Overcast,220,2013-12-05 19:53:00
3:53 PM,73.0,63.0,71,29.90,10.0,SSW,16.1,-,N/A,,Overcast,210,2013-12-05 20:53:00
4:53 PM,72.0,62.1,71,29.92,10.0,SW,10.4,-,N/A,,Overcast,220,2013-12-05 21:53:00
5:53 PM,71.1,62.1,73,29.91,10.0,SW,8.1,-,N/A,,Overcast,220,2013-12-05 22:53:00
7:53 PM,68.0,64.0,87,29.91,9.0,South,11.5,-,0.02,Rain,Light Rain,190,2013-12-06 00:53:00
8:53 PM,66.0,63.0,90,29.91,10.0,West,6.9,-,0.00,,Mostly Cloudy,270,2013-12-06 01:53:00
9:53 PM,66.9,63.0,87,29.91,10.0,SW,9.2,-,N/A,,Mostly Cloudy,220,2013-12-06 02:53:00
10:53 PM,66.9,63.0,87,29.91,10.0,SW,9.2,-,N/A,,Mostly Cloudy,220,2013-12-06 03:53:00
11:53 PM,68.0,63.0,84,29.91,10.0,SSW,8.1,-,N/A,,Overcast,210,2013-12-06 04:53:00